Location: Unspecified
(0.0000°N, 0.0000°E)
Time: 16:50:21
(UTC+00:00)

STARLINK-36181 - Pass Details

Date: 04 March 2026
Orbit: 270 x 271 km, 53.2° (Epoch: 6 March)

Event Time Altitude Azimuth Distance (km) Brightness Sun altitude
Rises 19:02:31 0° 219° (SW) 1,847 6.1 -12.6°
Reaches altitude 10° 19:04:24 10° 223° (SW) 1,046 4.8 -13.1°
Maximum altitude 19:06:40 58° 304° (WNW) 309 1.6 -13.7°
Enters shadow 19:08:01 21° 18° (NNE) 664 2.8 -14.0°
